Regional Weather Roundup
Issued by NWS

Home | Current Version | Previous Version | Text Only | Print | Product List | Glossary On
Versions: 1 2 3 4 5 6 7 8 9 10 11 12 13 14 15 16 17 18 19 20 21 22 23 24 25 26 27 28 29 30 31 32 33 34 35 36 37 38 39 40 41 42 43 44 45 46 47 48 49 50
000
ASUS46 KLOX 020912
RWRCA

SOUTHERN CALIFORNIA WEATHER ROUNDUP
NATIONAL WEATHER SERVICE OXNARD CALIFORNIA
200 AM PDT TUE SEP 02 2014

NOTE: "FAIR" INDICATES FEW OR NO CLOUDS BELOW 12,000 FEET WITH NO
SIGNIFICANT WEATHER AND/OR OBSTRUCTIONS TO VISIBILITY.

  -  STATIONS PRECEEDED BY AN ASTERISK (*) ARE NOT NWS OR FAA
     STATIONS AND ARE NOT SUBJECT TO NWS AND FAA QUALITY CONTROL.

CAZ041-042-087-021000-
LA AND ORANGE COUNTY COASTAL AREAS


CITY           SKY/WX    TMP DP  RH WIND       PRES   REMARKS
L.A. DOWNTOWN  CLEAR     69  63  81 SE3       29.83S
L.A. AIRPORT   PTCLDY    69  63  81 SE3       29.84R
LONG BEACH     MOCLDY    68  63  83 E3        29.83S

CITY           SKY/WX    TMP DP  RH WIND       PRES   REMARKS
AVALON           N/A     70 N/A N/A S2          N/A
FULLERTON      MOCLDY    69  63  81 SE5       29.83R
*GETTY CENTER    N/A     64  63  94 SE3         N/A
HAWTHORNE      CLEAR     70  64  81 CALM      29.83S
*LEO CARRILLO    N/A     64  58  81 NE7         N/A
*LOS ALAMITOS  FAIR      68  64  85 VRB3      29.83S
*REDONDO BEACH   N/A     67  63  87 CALM      29.83S
SANTA ANA      CLOUDY    72  63  73 SE7       29.83F
STA MONICA APT CLOUDY    69  64  84 CALM      29.84R
*UCLA            N/A     68  61  77 CALM      29.82R

$$

CAZ547-548-048-021000-
LA COUNTY VALLEYS AND INLAND EMPIRE


CITY           SKY/WX    TMP DP  RH WIND       PRES   REMARKS
BURBANK        CLEAR     69  61  75 SE7       29.84R
VAN NUYS       CLEAR     69  61  75 SE5       29.84R

CITY           SKY/WX    TMP DP  RH WIND       PRES   REMARKS
CORONA AIRPORT SUNNY     65  62  90 W3        29.85R
*CHATSWORTH      N/A     69  62  77 CALM      29.79R
CHINO          CLEAR     64  61  90 W5        29.85S
MARCH AFB      CLEAR     65  55  71 NW2       29.86S
ONTARIO        CLEAR     67  61  81 W6        29.84S
*PASADENA        N/A     68  64  88 NE1         N/A
RIVERSIDE      CLEAR     68  61  78 W5        29.85R
SAN BERNARDINO NOT AVBL
*SAN RAFAEL HI   N/A     62  62 100 CALM        N/A
*SAUGUS          N/A     67  44  42 CALM        N/A
*WHITEMAN AP   NOT AVBL
*WOODLAND HILL   N/A     64  57  77 SE1         N/A

$$

CAZ054-055-021000-
LA AND SAN BERNARDINO COUNTY MOUNTAINS


CITY           SKY/WX    TMP DP  RH WIND       PRES   REMARKS
*BIG BEAR AIRP SUNNY     45  27  49 CALM      30.18F
MT WILSON NWS    N/A     68  -6   5 E12         N/A
SANDBERG       CLEAR     72  42  34 W10       30.02F

$$

CAZ028-029-059-060-099-021000-
ANTELOPE VALLEY AND SURROUNDING AREAS


CITY           SKY/WX    TMP DP  RH WIND       PRES   REMARKS
LANCASTER      CLEAR     75  38  26 SW8       29.86F
PALMDALE       CLEAR     72  38  29 S9        29.88S
*POPPY PARK      N/A     73  36  26 SW10        N/A

CITY           SKY/WX    TMP DP  RH WIND       PRES   REMARKS
29 PALMS       CLEAR     81  34  18 NW7       29.88F
BARSTOW/DAGGET CLEAR     79  40  24 W9        29.82F
BISHOP         CLEAR     65  30  27 NW7       29.95R
CHINA LAKE     CLEAR     76  40  27 SW9       29.81S
EDWARDS AFB    CLEAR     72  38  29 S13       29.84S
MOJAVE         FAIR      77  34  20 SW7       29.87F
NEEDLES        CLEAR     88  35  15 W7        29.73S
VICTORVILLE    CLEAR     70  39  32 CALM      29.90S

$$

CAZ039-040-021000-
VENTURA AND SANTA BARBARA COUNTY COAST


CITY           SKY/WX    TMP DP  RH WIND       PRES   REMARKS
CAMARILLO      MOCLDY    67  60  78 CALM        N/A
NWS OXNARD       N/A     64  61  89 CALM      29.82S
OXNARD AIRPORT CLOUDY    64  61  90 CALM      29.82S
*POINT MUGU    MOCLDY    66  61  84 CALM      29.83R HAZE
SBA APT/GOLETA CLOUDY    64  63  94 E6        29.81S
*VENTURA         N/A     63  58  83 CALM      29.87S

$$

CAZ044-045-021000-
VENTURA COUNTY VALLEYS


CITY           SKY/WX    TMP DP  RH WIND       PRES   REMARKS
*SIMI VALLEY     N/A     66  59  77 NE1       29.77R
*OJAI            N/A     59  54  82 CALM      29.76R
*FILLMORE        N/A     60  56  85 CALM      29.72S

$$

CAZ053-021000-
VENTURA COUNTY MOUNTAINS


CITY           SKY/WX    TMP DP  RH WIND       PRES   REMARKS
*LOCKWOOD VLY    N/A     50  34  53 MISG        N/A
*ROSE VALLEY     N/A     52  43  71 MISG        N/A

$$

CAZ034-035-036-021000-
CENTRAL COAST AND SANTA YNEZ VALLEY


CITY           SKY/WX    TMP DP  RH WIND       PRES   REMARKS
SAN LUIS OBISP CLOUDY    59  57  93 CALM      29.83S
SANTA MARIA    CLOUDY    61  57  87 CALM      29.83F FOG

CITY           SKY/WX    TMP DP  RH WIND       PRES   REMARKS
*CAL POLY SLO    N/A     61  59  94 CALM        N/A
*LOMPOC        CLOUDY    61  55  82 CALM      29.83F
*PISMO BEACH     N/A     59  58  96 SW2       29.83F
*SANTA YNEZ    FAIR      55  54  94 CALM      29.83S

$$

CAZ037-038-051-021000-
SAN LUIS OBISPO COUNTY INTERIOR AND CUYAMA VALLEY


CITY           SKY/WX    TMP DP  RH WIND       PRES   REMARKS
*CUYAMA          N/A     64  44  46 E1        29.74S
PASO ROBLES    CLEAR     65  50  58 CALM      29.82S

$$

CAZ032-033-061-021000-
SOUTHERN DESERTS


CITY           SKY/WX    TMP DP  RH WIND       PRES   REMARKS
BLYTHE         CLEAR     86  50  28 S6        29.71S
IMPERIAL       CLEAR     86  44  23 CALM      29.68R
PALM SPRINGS   CLEAR     86  35  16 CALM      29.73F
THERMAL        CLEAR     86  34  15 N7        29.66S

$$

ELSEWHERE ACROSS THE WESTERN UNITED STATES AND MEXICO


CITY           SKY/WX    TMP DP  RH WIND       PRES   REMARKS
DENVER, CO     CLEAR     52  44  74 W6        30.16F
GRAND CANYON,    N/A    N/A N/A N/A MISG        N/A
HONOLULU, HI   PTCLDY    81  70  69 NE10      30.04S
KAHULUI, MAUI  CLEAR     73  70  88 CALM      30.04S
LAKE TAHOE, CA CLEAR     50  37  61 CALM      30.13F
LAS VEGAS, NV  CLEAR     85  33  15 SW7       29.78S
MAMMOTH LAKES, FAIR      52  28  40 N3        30.20S
MEXICO CITY, M MOCLDY    57  55  94 CALM      30.28F
PHOENIX, AZ    PTCLDY    89  50  26 CALM      29.77R
PORTLAND, OR   PTCLDY    64  58  80 NW9       29.96F
RENO, NV       CLEAR     66  35  31 CALM      30.01S
SALT LAKE CITY CLEAR     60  37  42 SE7       30.02F
SAN DIEGO, CA  CLOUDY    70  61  73 S7        29.85F
SAN FRANCISCO, PTCLDY    61  58  90 W10       29.79F
SAN JOSE, CA   CLEAR     64  59  83 W3        29.79S
SEATTLE, WA    MOCLDY    63  54  72 NE8       29.98F
TIJUANA, MEX     N/A    N/A N/A N/A MISG        N/A

$$

STATION/POSITION TIME  TEMP    WIND        PRES    VSBY  WAVE
                       AIR SEA DIR/SP/G                  HT/PER
                 (UTC) (F)     (DEG/KT/KT) (MB)    (MI)  (FT/S)
POINT ARGUELLO B NOT AVBL
WEST SANTA BARBA 0900   60 63  320/ 16/ 17 1008.6F         5/10
POINT CONCEPTION NOT AVBL
EAST SANTA BARBA 0900   63 67  240/ 10/ 12 1009.5R
SANTA MONICA BAY 0900   67 72   CALM  /  2 1009.6S         3/14


USA.gov is the U.S. government's official web portal to all federal, state and local government web resources and services.